Location: �terpigny
(49.8910°N, 2.9249°E)
Time: 23:16:52
(UTC+00:00)

DIWATA 2B (PO-101) - Pass Details

Date: 04 July 2022
Orbit: 583 x 599 km, 98.0° (Epoch: 07 August)

Event Time Altitude Azimuth Distance (km) Brightness Sun altitude
Exits shadow 02:04:38 16° 194° (SSW) 1,600 ? -11.6°
Maximum altitude 02:07:46 43° 261° (W) 845 ? -11.3°
Drops below altitude 10° 02:11:50 10° 334° (NNW) 1,951 ? -11.0°
Sets 02:14:06 0° 341° (NNW) 2,858 ? -10.8°
